{"data":{"norad_id":68526,"intl_designator":"2026-068U","name":"STARLINK-37178","alt_names":[],"object_type":"PAYLOAD","status":"ACTIVE","operator":null,"country":"US","launch_date":"2026-03-30","launch_site_code":"AFETR","launch_vehicle":null,"mission":null,"orbit_class":"UNKNOWN","rcs_meters":null,"size_class":null,"mass_kg":null,"dimensions":null,"purposes":["comms"],"wikipedia_slug":null,"has_3d_model":false,"image_url":null,"decayed_at":null,"tle_current":{"epoch":"2026-05-25T02:56:22.931232Z","epoch_age_seconds":60594,"freshness":"FRESH","line1":"1 68526U 26068U   26145.12248763  .00027294  00000+0  63403-3 0  9992","line2":"2 68526  53.1574 133.7984 0000565  27.6503 332.4532 15.42178380  8658","mean_motion":15.4217838,"eccentricity":5.65e-5,"inclination_deg":53.1574,"raan_deg":133.7984,"arg_perigee_deg":27.6503,"mean_anomaly_deg":332.4532,"bstar":0.00063403,"rev_number":865,"period_min":93.374412368561,"perigee_km":439.29627563679,"apogee_km":440.0666891253,"semimajor_km":6817.818482381,"source":"CELESTRAK","updated_at":"2026-05-25T13:38:21.956451Z"}}}